Location: Seattle
(47.6064°N, 122.3308°W)
Time: 01:48:30
(UTC-08:00)

Tiros 1 - Pass Details

Date: 03 December 2020
Orbit: 630 x 663 km, 48.4° (Epoch: 28 January)

Event Time Altitude Azimuth Distance (km) Brightness Sun altitude
Rises 15:18:29 0° 255° (WSW) 2,991 11.7 7.1°
Reaches altitude 10° 15:20:50 10° 256° (WSW) 2,080 11.0 6.8°
Maximum altitude 15:25:39 87° 169° (S) 668 7.4 6.2°
Drops below altitude 10° 15:30:28 10° 79° (E) 2,076 9.3 5.6°
Sets 15:32:48 0° 79° (E) 2,985 10.0 5.3°
